天宫空间站(CSS (TIANHE-1))

导读

CSS(TIANHE-1)卫星是中国发射的一颗科学实验卫星,主要用于空间科学探测和地球观测。该卫星搭载多种先进仪器,具备高分辨率成像和数据采集能力,支持气象、环境监测及资源调查等应用。CSS卫星的发射提升了中国在遥感和空间技术领域的自主创新能力,为科学研究和国民经济建设提供了重要数据支持。

基本信息
目录编号:
48274
目录名称:
CSS (TIANHE-1)
国际标识:
2021-035A
轨道中心:
EARTH
卫星名称:
天宫空间站
卫星全名:
天宫空间站(CSS (TIANHE-1))
卫星状态:
在轨 (已飞行1955 天)
发射日期:
2021-04-29 UTC
国别 :
中国 (CN)
星等 :
--
轨道信息
数据来源 国际轨道数据
星历时间: 2026-09-05T12:08:12+0800
7小时前
查看轨道信息
半长轴: 6766.98km
偏心率: 0.0002296
轨道倾角: 41.468°
近地点辐角 258.875°
升交点赤经 196.432°
平近点角 101.183°
近地点: 387.289km
远地点: 390.397km
周期: 92.332分钟
每日圈数: 15.595902
详细信息
使用方式:
暂无
2D轨道图
3D轨道图
轨道高度分析图
轨道倾角分析图
轨道综合分析图
查看轨道综合分析图
交会数据列表
事件ID 空间交会对象 最接近时刻(TCA) 交会距离 交会风险概率(CRP) 交会风险指数(CRI) 操作
CDM_260905-091404-827405-323921
2026-09-05T
09:14:10+0000
0.217 km
中距离
1.999679E-4 高风险 0.81
CDM_260905-091404-827406-918022
SZ-23 (69180)
2026-09-05T
09:14:10+0000
0.217 km
中距离
1.999679E-4 高风险 0.81
CDM_260905-091404-827406-904921
2026-09-05T
09:14:10+0000
0.217 km
中距离
1.999679E-4 高风险 0.81
CDM_260905-104604-827405-323921
2026-09-05T
10:46:30+0000
0.261 km
中距离
1.379418E-4 高风险 0.78
CDM_260905-104604-827406-918021
SZ-23 (69180)
2026-09-05T
10:46:30+0000
0.261 km
中距离
1.379418E-4 高风险 0.78
CDM_260905-104604-827406-904921
2026-09-05T
10:46:30+0000
0.261 km
中距离
1.379418E-4 高风险 0.78
CDM_260905-121804-827405-323921
2026-09-05T
12:18:48+0000
0.307 km
远距离
9.484554E-5 中风险 0.75
CDM_260905-121804-827406-918021
SZ-23 (69180)
2026-09-05T
12:18:48+0000
0.307 km
远距离
9.484554E-5 中风险 0.75
CDM_260905-121804-827406-904921
2026-09-05T
12:18:48+0000
0.307 km
远距离
9.484554E-5 中风险 0.75
CDM_260905-135104-827405-323921
2026-09-05T
13:51:06+0000
0.356 km
远距离
6.518967E-5 中风险 0.71